Погода в Сайдах

Россия / Республика Саха (Якутия)     68°41′50″N   134°27′53″E
темп.,
°C
ветер,
м/с
пор.,
м/с
влажн.,
%
обл.,
%
осадки,
мм/ч
давл.,
гПа
погр.,
м
1 марта, пн
пн101:00−38ююв1110023 0.0 102519
04:00−38ююв0110049 0.0 102519
07:00−38юв1110083 0.0 102519
10:00−36ююв119680 0.0 102519
13:00−33ю118782 0.0 1024236
16:00−32юз018988 0.0 1024146
19:00−37св0010069 0.0 102519
22:00−38ссз0110054 0.0 102519
2 марта, вт
вт201:00−39с0110074 0.0 102519
04:00−39ссз1110053 0.0 102619
07:00−37ссз119889 0.0 102719
10:00−35ссз119593 0.1 102676
13:00−33ссз118998 0.0 1027217
16:00−32ссз119097 0.1 1027164
19:00−37с119922 0.0 102819
22:00−38ссз129912 0.0 102819
3 марта, ср
ср301:00−39ссз1210012 0.0 102819
04:00−39ссз1210036 0.0 102718
07:00−38ссз129897 0.0 102618
10:00−36ссз129599 0.0 1025107
13:00−33с3590100 0.0 1023433
16:00−32с4691100 0.0 1022484
19:00−35ссз4695100 0.0 1022111
22:00−36ссз4798100 0.2 1021356
4 марта, чт
чт401:00−36сз3798100 0.2 1021330
04:00−37сз2598100 0.4 1020266
07:00−37сз2398100 0.2 102172
10:00−36ссз3693100 0.3 1021451
13:00−33ссз4689100 0.1 1021583
16:00−32ссз4690100 0.2 1022618
19:00−32сз2297100 0.1 102375
22:00−31зсз1198100 0.3 102320
5 марта, пт
пт501:00−31з1199100 0.2 102319
04:00−31з1199100 0.4 102420
07:00−30сз2297100 0.2 102532
10:00−30ссз2388100 0.2 1025187
13:00−29ссз4585100 0.0 1025479
16:00−29ссз4587100 0.0 1025468
19:00−31ссз3391100 0.0 102672
22:00−32ссз2291100 0.0 102632